[[{"header":{"parameterUnit":"m.s-1","parameterCategory":1,"la1":30.2991,"la2":30.254,"lo1":-89.0895,"lo2":-89.0444,"dy":0.0017,"dx":0.0017,"nx":28,"ny":28,"refTime":"2023-11-15T03:00:00:Z","depth":0,"parameterNumber":2,"parameterNumberName":"U-component_of_WINDS"},"data":[0,0,0,0,0,0,0,0,0,0,0,0,0,0,0,0,0,0,0,0,0,0,0,0,0,0,0,0,0,0,0,0,0,0,0,0,0,0,0,0,0,0,0,0,0,0,0,0,0,0,0,0,0,0,0,0,0,0,-4.2614,-4.2615,0,-4.2722,-4.2724,-4.2725,-4.2651,-4.2647,-4.2644,-4.2641,-4.2754,-4.276,-4.2766,0,0,0,0,0,0,0,0,0,0,0,0,0,-4.2343,-4.2348,-4.2614,-4.2615,-4.2616,-4.2722,-4.2724,-4.2725,-4.2651,-4.2647,-4.2643,-4.2639,-4.2752,-4.2759,-4.2767,0,0,0,0,0,0,0,0,0,0,0,0,0,-4.2457,-4.235,-4.2613,-4.2592,-4.2591,-4.2722,-4.2724,-4.2726,-4.2652,-4.2647,-4.2642,-4.2637,-4.275,-4.2759,-4.2768,-4.2926,0,0,-4.2796,-4.28,0,0,0,0,0,0,0,0,-4.2451,-4.2467,-4.2594,-4.2594,-4.2593,-4.2668,-4.267,-4.2793,-4.2653,-4.2629,-4.2641,-4.2635,-4.273,-4.274,-4.2772,-4.2931,-4.2936,-4.2797,-4.2802,-4.2806,-4.2809,0,0,0,0,0,0,0,-4.2443,-4.2462,-4.2657,-4.2596,-4.2595,-4.2578,-4.2588,-4.2693,-4.2706,-4.2631,-4.2626,-4.264,-4.2728,-4.2763,-4.2774,-4.2937,-4.2796,-4.2805,-4.281,-4.2814,-4.3233,-4.3239,0,0,0,0,0,0,-4.2437,-4.2456,-4.2653,-4.266,-4.2508,-4.2587,-4.2598,-4.2649,-4.2705,-4.2709,-4.2644,-4.2636,-4.275,-4.2763,-4.2777,-4.2968,-4.2806,-4.2815,-4.282,-4.3228,-4.3235,-4.3241,0,0,0,0,0,0,-4.2431,-4.2455,-4.2649,-4.2557,-4.258,-4.2597,-4.2654,-4.2654,-4.2688,-4.2715,-4.2717,-4.2677,-4.2746,-4.2764,-4.289,-4.297,-4.2819,-4.2827,-4.3221,-4.323,-4.3238,-4.3349,0,0,0,0,0,0,-4.2424,-4.2453,-4.2513,-4.2559,-4.2585,-4.2759,-4.2659,-4.266,-4.2704,-4.2695,-4.2746,-4.275,-4.2744,-4.2876,-4.2899,-4.298,-4.2835,-4.3214,-4.3225,-4.3235,-4.3338,-4.336,-4.3379,0,0,0,0,0,-4.2414,-4.254,-4.2517,-4.2541,-4.266,-4.2764,-4.2779,-4.2769,-4.2711,-4.2772,-4.2789,-4.2748,-4.2957,-4.289,-4.2914,-4.3,-4.3209,-4.3222,-4.3234,-4.3329,-4.3355,-4.3378,0,0,0,0,0,0,-4.2505,-4.2546,-4.252,-4.2665,-4.2711,-4.2751,-4.2827,-4.2797,-4.2862,-4.2851,-4.2835,-4.2848,-4.2979,-4.3001,-4.2925,-4.3157,-4.3074,-4.3092,-4.3138,-4.3163,-4.3183,-4.3176,-4.2842,0,0,0,0,0,-4.2541,-4.2622,-4.2653,-4.2777,-4.2802,-4.2811,-4.2856,-4.2844,-4.2892,-4.2911,-4.2937,-4.2986,-4.3063,-4.3114,-4.3186,-4.334,-4.3351,-4.3411,-4.3431,-4.3448,-4.3465,-4.3549,-4.3577,-4.3282,-4.3282,-4.3282,0,0,-4.2618,-4.2651,-4.2702,-4.2797,-4.2831,-4.2916,-4.2828,-4.2921,-4.2983,-4.2925,-4.3046,-4.3067,-4.312,-4.3261,-4.3324,-4.3283,-4.3548,-4.3464,-4.3477,-4.3485,-4.3565,-4.3593,-4.3618,-4.3291,-4.3289,-4.3288,0,0,-4.2802,-4.2833,-4.2941,-4.2978,-4.3031,-4.3036,-4.3062,-4.3107,-4.3119,-4.3239,-4.3198,-4.3272,-4.3404,-4.3444,-4.3482,-4.368,-4.3646,-4.3704,-4.3811,-4.3894,-4.3918,-4.3938,-4.4011,-4.4037,-4.372,-4.372,-4.372,0,-4.2891,-4.3016,-4.3001,-4.3097,-4.314,-4.3091,-4.32,-4.3237,-4.3311,-4.3343,-4.3296,-4.3461,-4.3493,-4.3644,-4.3692,-4.3724,-4.3754,-4.3699,-4.3915,-4.3936,-4.3955,-4.4024,-4.4051,-4.3727,-4.3726,-4.3726,-4.3725,0,-4.3123,-4.3211,-4.3291,-4.3365,-4.3417,-4.3519,-4.352,-4.3575,-4.3558,-4.3568,-4.3692,-4.3729,-4.3808,-4.3842,-4.3827,-4.3991,-4.3964,-4.3917,-4.3834,-4.399,-4.4055,-4.4081,-4.3737,-4.3734,-4.3732,-4.3731,0,0,-4.3369,-4.3432,-4.3462,-4.3495,-4.3551,-4.3618,-4.3718,-4.3796,-4.3844,-4.3896,-4.3981,-4.4094,-4.405,-4.4093,-4.4082,-4.4154,-4.4312,-4.4098,-4.4099,-4.4138,-4.4497,-4.4535,-4.4566,-4.4288,-4.4293,-4.4297,-4.4494,0,-4.3557,-4.3732,-4.3721,-4.3886,-4.3967,-4.3921,-4.4009,-4.4053,-4.4065,-4.4136,-4.4149,-4.423,-4.4165,-4.4191,-4.426,-4.4278,-4.4384,-4.4263,-4.4369,-4.4373,-4.436,-4.4599,-4.4639,-4.4822,-4.4519,-4.4523,-4.4526,0,-4.38,-4.3862,-4.4035,-4.4079,-4.4113,-4.4192,-4.4262,-4.433,-4.4379,-4.4382,-4.443,-4.4407,-4.4509,-4.4422,-4.4564,-4.4482,-4.4524,-4.4539,-4.4546,-4.4558,-4.4461,-4.4619,-4.488,-4.4909,-4.4565,-4.4562,-4.4559,0,-4.3965,-4.409,-4.421,-4.424,-4.4294,-4.4351,-4.4376,-4.442,-4.4467,-4.4528,-4.4559,-4.4631,-4.4672,-4.4729,-4.4726,-4.4662,-4.487,-4.4782,-4.4878,-4.4878,-4.4926,-4.4923,-4.52,-4.4949,-4.4949,-4.4948,-4.4948,0,-4.4177,-4.4286,-4.4285,-4.436,-4.448,-4.4466,-4.4586,-4.4605,-4.4644,-4.4722,-4.4686,-4.4759,-4.475,-4.4824,-4.4823,-4.4941,-4.4959,-4.4966,-4.4965,-4.4971,-4.4971,-4.5,-4.4988,-4.4956,-4.4954,-4.4952,-4.4951,0,-4.4383,-4.4386,-4.4515,-4.4555,-4.4567,-4.4655,-4.4689,-4.476,-4.4768,-4.4867,-4.489,-4.4903,-4.4989,-4.4991,-4.509,-4.5088,-4.5234,-4.5217,-4.5218,-4.5216,-4.5312,-4.5304,-4.5619,-4.5661,-4.5381,-4.5383,-4.5385,0,-4.4519,-4.4602,-4.4651,-4.47,-4.4729,-4.4809,-4.4857,-4.4846,-4.4898,-4.496,-4.5024,-4.5106,-4.5171,-4.5311,-4.533,-4.5405,-4.5392,-4.5497,-4.5403,-4.5407,-4.5396,-4.5392,-4.5401,-4.5516,-4.5519,-4.5522,-4.5524,0,-4.4763,-4.476,-4.4831,-4.4903,-4.4961,-4.5017,-4.5069,-4.5112,-4.5107,-4.5167,-4.5254,-4.5305,-4.5405,-4.5488,-4.5561,-4.5587,-4.5557,-4.5553,-4.5579,-4.5588,-4.5586,-4.559,-4.5271,-4.5546,-4.5544,-4.5542,-4.5541,-4.554,-4.494,-4.5011,-4.5057,-4.5137,-4.5175,-4.5224,-4.5293,-4.531,-4.5382,-4.5463,-4.5452,-4.555,-4.5597,-4.5692,-4.5724,-4.5801,-4.5765,-4.5803,-4.5813,-4.5823,-4.5835,-4.5571,-4.5814,-4.5813,-4.5813,-4.5812,-4.5812,0,-4.5183,-4.521,-4.5284,-4.5358,-4.5421,-4.5384,-4.5439,-4.5495,-4.5582,-4.5628,-4.5693,-4.5794,-4.5874,-4.5899,-4.5977,-4.6034,-4.6021,-4.6055,-4.6052,-4.6059,-4.5861,-4.5832,-4.6063,-4.6063,-4.6063,-4.6063,-4.6063,-4.6063,-4.5317,-4.5437,-4.544,-4.5579,-4.5605,-4.57,-4.5735,-4.5781,-4.5818,-4.5932,-4.5999,-4.6014,-4.6053,-4.6133,-4.6205,-4.621,-4.6242,-4.6282,-4.6282,-4.6097,-4.6072,-4.6048,-4.6021,-4.6288,-4.6288,-4.6473,-4.6474,-4.6476]},{"header":{"parameterUnit":"m.s-1","parameterCategory":1,"la1":30.2991,"la2":30.254,"lo1":-89.0895,"lo2":-89.0444,"dy":0.0017,"dx":0.0017,"nx":28,"ny":28,"refTime":"2023-11-15T03:00:00:Z","depth":0,"parameterNumber":3,"parameterNumberName":"V-component_of_WINDS"},"data":[0,0,0,0,0,0,0,0,0,0,0,0,0,0,0,0,0,0,0,0,0,0,0,0,0,0,0,0,0,0,0,0,0,0,0,0,0,0,0,0,0,0,0,0,0,0,0,0,0,0,0,0,0,0,0,0,0,0,-6.6015,-6.6015,0,-6.6004,-6.6004,-6.6003,-6.5886,-6.5883,-6.588,-6.5877,-6.5866,-6.5869,-6.5871,0,0,0,0,0,0,0,0,0,0,0,0,0,-6.5935,-6.5937,-6.6015,-6.6015,-6.6015,-6.6004,-6.6004,-6.6003,-6.5886,-6.5883,-6.5879,-6.5876,-6.5865,-6.5868,-6.5871,0,0,0,0,0,0,0,0,0,0,0,0,0,-6.5951,-6.5938,-6.6015,-6.5955,-6.595,-6.6004,-6.6004,-6.6003,-6.5887,-6.5883,-6.5878,-6.5874,-6.5865,-6.5868,-6.5872,-6.5983,0,0,-6.5883,-6.5885,0,0,0,0,0,0,0,0,-6.5951,-6.5954,-6.5964,-6.5959,-6.5953,-6.5942,-6.5971,-6.5996,-6.5888,-6.5911,-6.5877,-6.5872,-6.5895,-6.5896,-6.5903,-6.5982,-6.5982,-6.5883,-6.5886,-6.5887,-6.5888,0,0,0,0,0,0,0,-6.595,-6.5954,-6.601,-6.5964,-6.5958,-6.5929,-6.5926,-6.5975,-6.5928,-6.5909,-6.59,-6.59,-6.5891,-6.59,-6.5902,-6.5982,-6.5883,-6.5886,-6.5889,-6.589,-6.615,-6.6154,0,0,0,0,0,0,-6.5957,-6.5954,-6.6011,-6.601,-6.5941,-6.5934,-6.5931,-6.595,-6.5927,-6.5919,-6.5904,-6.5895,-6.5896,-6.5898,-6.5902,-6.6029,-6.5887,-6.5891,-6.5893,-6.6145,-6.6151,-6.6156,0,0,0,0,0,0,-6.5956,-6.5963,-6.6011,-6.598,-6.5984,-6.594,-6.5962,-6.5952,-6.5961,-6.5924,-6.5914,-6.5922,-6.5893,-6.5896,-6.5963,-6.6027,-6.5892,-6.5896,-6.614,-6.6147,-6.6154,-6.6287,0,0,0,0,0,0,-6.5954,-6.5963,-6.6005,-6.5982,-6.5986,-6.6074,-6.5966,-6.5955,-6.5967,-6.5955,-6.5938,-6.5931,-6.589,-6.5958,-6.5967,-6.603,-6.5898,-6.6134,-6.6143,-6.6151,-6.6277,-6.6298,-6.6316,0,0,0,0,0,-6.5951,-6.6044,-6.6008,-6.6015,-6.6037,-6.6078,-6.608,-6.603,-6.5973,-6.6015,-6.5991,-6.5931,-6.6019,-6.5966,-6.5975,-6.604,-6.613,-6.614,-6.6151,-6.6268,-6.6294,-6.6315,0,0,0,0,0,0,-6.6076,-6.6039,-6.6,-6.6087,-6.6086,-6.6058,-6.6109,-6.6059,-6.6075,-6.6063,-6.6001,-6.5998,-6.6074,-6.6064,-6.6005,-6.6146,-6.6064,-6.6077,-6.615,-6.6174,-6.6194,-6.6195,-6.5901,0,0,0,0,0,-6.6114,-6.615,-6.6115,-6.6196,-6.6198,-6.6154,-6.6169,-6.6131,-6.6128,-6.6127,-6.6108,-6.6107,-6.6134,-6.6154,-6.6177,-6.6274,-6.6269,-6.6323,-6.6343,-6.6359,-6.6371,-6.6422,-6.6446,-6.6191,-6.6191,-6.6191,0,0,-6.6192,-6.6177,-6.6203,-6.6221,-6.6216,-6.6254,-6.6154,-6.6199,-6.6227,-6.6134,-6.6196,-6.6182,-6.6177,-6.626,-6.6295,-6.6253,-6.644,-6.6373,-6.6386,-6.6389,-6.6435,-6.6459,-6.6481,-6.6198,-6.6197,-6.6196,0,0,-6.6355,-6.6347,-6.6412,-6.6409,-6.6402,-6.6372,-6.6388,-6.6367,-6.6354,-6.6415,-6.6346,-6.6378,-6.6426,-6.6425,-6.6431,-6.6593,-6.6539,-6.6602,-6.6704,-6.6754,-6.6774,-6.6792,-6.6849,-6.687,-6.6614,-6.6614,-6.6614,0,-6.6453,-6.6508,-6.6452,-6.6502,-6.6511,-6.6428,-6.6494,-6.6494,-6.6495,-6.6504,-6.6457,-6.6515,-6.6506,-6.6587,-6.6627,-6.6634,-6.665,-6.6604,-6.6776,-6.6793,-6.6808,-6.6862,-6.6884,-6.6622,-6.6621,-6.662,-6.6619,0,-6.6629,-6.6668,-6.6722,-6.6725,-6.674,-6.6798,-6.6751,-6.6773,-6.6733,-6.6708,-6.6771,-6.6757,-6.6776,-6.6792,-6.6754,-6.6868,-6.6842,-6.6787,-6.6703,-6.6841,-6.6891,-6.6911,-6.6633,-6.663,-6.6628,-6.6626,0,0,-6.687,-6.6841,-6.6862,-6.6862,-6.6848,-6.6877,-6.6931,-6.6948,-6.6969,-6.6972,-6.7016,-6.7058,-6.7006,-6.7013,-6.6974,-6.7018,-6.7146,-6.6956,-6.6955,-6.6992,-6.7271,-6.7313,-6.7338,-6.711,-6.7114,-6.7117,-6.7271,0,-6.7026,-6.7116,-6.7067,-6.7163,-6.7198,-6.712,-6.7166,-6.7163,-6.7141,-6.7167,-6.7142,-6.7174,-6.7103,-6.7106,-6.7146,-6.7122,-6.7201,-6.711,-6.715,-6.7152,-6.7154,-6.7364,-6.7409,-6.7555,-6.729,-6.7294,-6.7296,0,-6.7221,-6.7232,-6.7332,-6.7311,-6.7323,-6.7366,-6.7378,-6.7404,-6.7399,-6.7379,-6.7387,-6.7337,-6.7388,-6.7305,-6.7374,-6.7314,-6.7327,-6.7318,-6.7322,-6.7324,-6.7233,-6.7372,-6.76,-6.7623,-6.7326,-6.7324,-6.7321,0,-6.7387,-6.7427,-6.7492,-6.7494,-6.7471,-6.7503,-6.7495,-6.7485,-6.7498,-6.7508,-6.7516,-6.7533,-6.7542,-6.7556,-6.7512,-6.7456,-6.7588,-6.7501,-6.7573,-6.7574,-6.7604,-6.7603,-6.7839,-6.7613,-6.7613,-6.7613,-6.7612,0,-6.7567,-6.7631,-6.7566,-6.7606,-6.7675,-6.7618,-6.7688,-6.7671,-6.7663,-6.7698,-6.7631,-6.7666,-6.7605,-6.7634,-6.7599,-6.7662,-6.7666,-6.7652,-6.7643,-6.7659,-6.7661,-6.7667,-6.7655,-6.7618,-6.7617,-6.7616,-6.7615,0,-6.7764,-6.7723,-6.7788,-6.7761,-6.7755,-6.7808,-6.7784,-6.7819,-6.7792,-6.7838,-6.7845,-6.7803,-6.7833,-6.779,-6.7816,-6.7793,-6.7879,-6.7853,-6.7881,-6.7873,-6.7948,-6.7941,-6.8196,-6.8226,-6.7981,-6.7984,-6.7986,0,-6.7882,-6.7929,-6.7906,-6.7924,-6.792,-6.7951,-6.7964,-6.7909,-6.7926,-6.7922,-6.7959,-6.7983,-6.7999,-6.8051,-6.8023,-6.8042,-6.8017,-6.8104,-6.8019,-6.8034,-6.8018,-6.8016,-6.802,-6.8122,-6.8125,-6.8127,-6.8129,0,-6.8095,-6.8072,-6.8093,-6.8107,-6.8125,-6.8133,-6.8137,-6.8156,-6.8099,-6.8121,-6.815,-6.8163,-6.8188,-6.8213,-6.8225,-6.8217,-6.8164,-6.8156,-6.8174,-6.8191,-6.8205,-6.8198,-6.7928,-6.8151,-6.8149,-6.8147,-6.8146,-6.8145,-6.8255,-6.8293,-6.8283,-6.8309,-6.8306,-6.8311,-6.8343,-6.8319,-6.8342,-6.8359,-6.8325,-6.8363,-6.8355,-6.8365,-6.8363,-6.8392,-6.8354,-6.8379,-6.8386,-6.8393,-6.8405,-6.82,-6.8394,-6.8393,-6.8392,-6.8392,-6.8391,0,-6.8465,-6.8454,-6.8478,-6.8485,-6.8505,-6.8453,-6.8454,-6.8475,-6.8508,-6.8506,-6.8523,-6.8557,-6.858,-6.8554,-6.8573,-6.8601,-6.8577,-6.8608,-6.8605,-6.8604,-6.8438,-6.8421,-6.8627,-6.8626,-6.8626,-6.8626,-6.8626,-6.8626,-6.8576,-6.8637,-6.8613,-6.8672,-6.8661,-6.8697,-6.8702,-6.8706,-6.8703,-6.8744,-6.8763,-6.8745,-6.8733,-6.875,-6.8769,-6.8761,-6.8771,-6.881,-6.8794,-6.8639,-6.8616,-6.8594,-6.8577,-6.8813,-6.8813,-6.8957,-6.8959,-6.896]}]]